Wind_Speed
14 15 15 14 15 15 15 15 15 16 16 16 16 15 15 16 17 17 18 18 18 19 18 18 18 19 19 19 20 20 19 19 18 17 16 15 14 13 12 11 10 9 8
14 14 15 14 14 14 14 14 15 15 15 15 15 15 15 16 16 17 17 18 19 20 20 20 19 19 20 21 21 21 21 21 21 20 18 17 16 16 14 13 12 11 10
13 13 14 14 14 14 14 14 15 14 15 14 15 15 16 16 16 17 17 18 18 20 20 21 20 21 21 22 22 23 23 23 23 22 21 20 19 18 17 16 15 14 13
12 12 12 12 13 14 14 14 14 15 15 16 16 17 17 18 18 18 19 19 19 19 20 21 21 21 23 24 24 24 25 24 25 25 24 23 22 21 20 19 18 17 16
10 10 11 12 12 13 14 14 15 15 16 16 17 18 18 19 19 19 20 20 20 20 21 22 22 23 24 25 25 25 26 27 27 27 27 26 25 24 23 21 21 20 19
10 10 11 11 12 12 13 14 14 15 16 17 18 18 19 19 20 21 21 21 22 22 22 23 23 24 25 25 26 27 27 28 28 29 28 28 28 27 26 25 24 22 21
9 10 11 11 12 12 13 13 14 15 16 17 18 18 19 20 20 21 21 22 22 23 24 24 25 26 26 26 27 28 28 29 29 29 30 30 30 29 29 28 27 26 24
8 9 10 11 11 12 13 14 15 16 17 17 18 19 20 21 21 22 22 22 23 23 24 25 26 27 28 28 29 30 30 29 29 29 31 31 32 32 31 30 30 29 28
9 9 10 11 12 13 14 15 16 17 18 19 19 20 21 22 23 23 23 24 24 24 25 26 27 28 29 30 31 31 31 31 31 31 32 33 33 34 33 32 31 31 31
8 9 10 12 13 13 14 15 17 18 19 19 20 21 22 23 24 25 26 26 27 27 27 28 28 29 30 31 32 33 34 34 34 34 34 34 34 34 35 34 34 33 32
8 9 11 12 13 14 16 16 17 18 19 20 21 22 23 24 25 26 27 28 28 29 29 30 30 31 32 33 33 35 35 36 36 36 37 37 36 36 37 36 36 35 34
9 10 12 14 15 16 17 18 19 20 21 22 22 23 24 25 26 27 28 30 30 31 31 32 32 33 33 34 35 36 37 37 38 38 39 39 39 38 38 38 38 38 37
10 12 14 16 17 18 19 20 21 22 22 23 24 24 25 25 26 27 28 30 31 32 33 34 35 35 36 36 37 38 38 39 40 40 40 40 41 40 40 39 40 40 40
11 14 16 17 18 19 20 21 23 23 24 25 25 26 26 26 26 27 27 28 30 32 34 35 36 36 37 38 39 39 40 40 41 42 42 42 42 42 42 42 41 41 41
14 16 18 19 20 21 23 24 24 25 25 26 27 27 27 27 27 27 28 28 29 30 33 35 37 38 38 39 40 41 41 42 43 44 44 44 44 43 44 44 43 43 42
16 18 19 21 23 24 25 26 26 26 27 28 28 29 29 29 28 28 28 29 29 30 31 34 37 38 39 40 41 42 43 44 44 45 45 46 46 45 45 46 46 45 44
18 20 22 23 25 25 26 27 28 28 29 30 30 30 30 29 29 29 29 30 30 30 30 32 35 37 38 39 40 42 44 45 45 46 47 47 47 47 47 47 47 46 46
20 22 24 25 26 27 28 28 29 30 30 31 31 31 31 31 31 30 30 31 31 31 31 31 34 36 37 38 39 40 42 44 46 47 48 48 48 49 48 48 48 47 47
22 24 26 27 27 28 29 30 30 31 32 32 32 32 32 32 32 32 32 32 32 32 31 31 33 35 36 38 38 39 40 43 45 46 48 49 49 50 50 49 49 49 48
25 27 28 28 29 30 31 31 32 33 33 33 33 33 33 33 33 33 33 33 33 32 32 32 32 34 36 37 38 38 39 41 43 46 47 49 50 50 51 51 50 50 50
27 29 29 30 31 32 33 33 34 34 34 35 35 35 35 35 34 34 34 33 33 33 33 33 32 33 35 37 38 38 38 40 41 44 46 48 49 50 51 51 51 51 51
29 30 32 33 33 34 34 34 35 35 36 36 36 37 36 36 35 35 34 34 34 33 33 33 33 33 34 36 38 38 38 39 40 42 45 47 49 50 51 51 51 52 51
31 32 33 34 35 35 36 36 36 36 37 38 38 38 37 37 36 35 34 34 34 34 34 33 33 33 34 35 37 37 38 38 39 41 43 45 48 49 50 51 52 52 52
33 34 35 36 36 37 37 37 37 37 38 39 39 38 38 38 37 36 35 35 35 34 34 33 32 33 34 35 36 37 38 39 39 41 42 44 46 48 50 51 51 52 52
35 36 37 37 37 38 38 39 39 39 40 40 40 40 39 38 37 36 36 35 35 35 34 33 32 32 33 35 36 36 37 38 39 40 42 43 45 47 48 50 51 52 52
36 37 38 38 39 39 40 41 41 41 42 42 42 41 40 39 38 38 37 36 35 34 35 34 33 33 33 34 35 36 36 37 37 38 41 43 44 46 47 49 51 52 52
Wind_Direction
294 291 289 293 292 288 286 284 283 279 281 281 280 278 273 267 265 264 263 261 258 256 254 253 251 242 237 235 232 229 227 225 224 221 218 217 214 211 209 207 206 205 203
292 291 289 293 298 293 290 287 282 279 278 279 276 275 274 271 267 262 262 262 260 257 254 253 250 244 242 239 234 232 229 227 227 225 224 222 220 217 216 214 214 214 213
291 293 290 291 294 294 291 289 285 283 281 279 277 276 277 273 269 267 267 267 264 260 255 253 251 248 246 242 239 235 232 231 229 228 228 227 224 222 221 220 219 219 219
293 293 293 292 293 293 295 293 289 287 285 283 282 280 279 276 272 270 268 267 265 262 258 254 253 251 247 244 244 242 236 234 231 230 230 229 228 227 225 224 224 223 223
302 300 298 296 296 298 299 296 293 291 288 286 285 283 281 279 274 272 269 267 265 263 260 256 255 253 248 246 247 245 240 238 236 233 231 230 230 229 228 227 226 226 226
307 306 304 303 303 302 301 300 298 295 292 290 287 285 282 281 277 274 271 268 266 264 261 257 255 252 249 248 247 244 243 240 239 237 233 232 231 231 231 231 229 228 228
310 311 311 309 307 306 306 305 302 300 297 292 290 288 285 282 278 275 273 269 266 264 261 258 256 251 249 249 247 245 245 243 242 237 236 235 234 234 233 233 232 230 230
321 322 320 319 317 313 311 309 306 303 300 297 293 290 287 285 281 277 274 272 268 265 263 260 257 253 250 249 248 246 246 246 243 241 239 238 236 235 234 233 233 232 231
326 329 329 328 325 321 315 311 308 304 301 298 296 293 289 287 284 280 276 273 270 267 263 260 259 255 252 250 248 247 246 245 244 242 240 238 238 236 236 235 234 234 233
330 333 333 331 328 324 321 316 313 309 305 302 299 296 292 289 286 283 279 275 271 268 265 262 260 258 255 252 250 247 246 245 245 244 242 241 240 237 236 235 234 234 234
336 336 334 331 329 327 324 322 318 316 312 308 304 299 295 290 286 283 281 277 273 269 266 264 262 260 258 255 252 249 247 245 245 245 244 243 242 241 238 236 235 235 234
334 332 332 331 329 327 326 324 322 318 314 310 307 302 298 293 289 285 282 279 275 271 268 265 262 260 258 255 254 251 249 247 246 245 244 243 242 241 240 238 237 236 235
331 331 331 330 330 328 327 325 323 320 317 314 311 307 302 297 292 288 284 280 277 273 270 266 263 261 258 256 254 253 251 249 247 246 245 243 242 241 240 240 239 237 236
327 328 329 329 329 328 327 324 323 320 318 315 313 310 305 300 296 292 288 284 279 276 272 268 264 261 259 257 255 254 252 250 248 246 245 244 243 242 241 241 240 237 236
322 324 326 326 327 326 325 324 323 321 319 318 316 313 309 304 299 295 291 287 283 279 275 272 268 263 260 257 256 253 252 251 249 247 245 244 243 242 241 240 240 239 237
319 322 324 325 324 324 324 324 323 321 320 319 318 315 311 307 302 298 294 290 287 283 278 275 272 268 264 259 257 254 251 250 249 248 246 244 243 242 241 239 239 239 239
315 318 320 322 323 322 321 321 322 320 320 319 319 317 313 309 304 300 297 293 290 287 282 276 274 271 268 264 260 256 253 251 249 248 246 245 243 242 241 240 239 239 239
312 315 317 319 320 319 319 320 320 320 320 319 318 317 314 310 306 302 299 296 293 290 284 278 274 273 270 267 263 259 255 252 250 249 247 246 244 243 242 241 240 239 239
309 313 315 317 318 318 318 318 319 319 318 318 317 316 314 311 307 303 300 298 296 293 288 281 276 273 271 269 266 261 258 254 252 249 248 246 244 243 242 241 240 239 239
307 310 313 315 316 317 316 316 317 318 317 317 316 315 313 311 308 304 301 298 296 294 290 285 279 275 272 270 267 264 260 257 254 251 249 247 245 243 242 242 241 240 239
305 308 310 312 313 314 315 315 316 316 316 316 316 315 313 310 307 304 301 298 296 295 292 288 283 278 274 270 268 265 262 259 255 253 250 247 246 244 242 241 241 240 239
304 305 308 310 311 312 313 313 314 314 314 315 315 314 312 309 307 305 302 299 297 295 293 289 285 281 276 272 269 267 264 260 257 254 251 248 246 244 242 241 240 240 239
303 305 307 309 309 311 311 312 313 313 314 314 314 313 311 309 307 305 303 300 298 295 293 290 286 282 278 274 271 268 265 261 259 256 252 249 247 245 243 241 239 239 239
302 304 306 308 309 309 310 311 312 312 313 313 313 312 310 309 306 305 303 301 299 296 293 291 287 283 279 276 273 270 266 263 260 257 253 250 248 246 244 242 240 238 238
301 303 305 307 307 308 309 310 310 311 312 313 313 312 310 308 306 305 303 301 299 296 294 292 287 283 280 277 275 272 268 263 260 257 254 250 248 246 244 242 241 240 238
300 302 304 305 306 307 308 309 309 310 311 311 312 311 310 308 306 304 303 302 299 296 294 291 288 284 282 279 276 273 269 265 261 257 255 252 248 246 244 242 241 240 239
Height
5879 5879 5878 5877 5876 5876 5875 5875 5875 5875 5875 5876 5876 5877 5878 5879 5879 5880 5881 5881 5882 5883 5884 5886 5887 5889 5891 5892 5895 5897 5899 5901 5903 5905 5906 5908 5909 5911 5912 5913 5915 5916 5918
5876 5876 5875 5875 5874 5873 5873 5873 5873 5873 5873 5873 5873 5873 5874 5875 5875 5876 5877 5877 5878 5879 5880 5882 5883 5885 5886 5888 5890 5893 5895 5897 5900 5902 5904 5905 5907 5909 5910 5912 5913 5915 5916
5874 5873 5873 5872 5872 5871 5870 5870 5870 5870 5870 5870 5870 5870 5870 5871 5872 5872 5873 5873 5874 5875 5876 5877 5878 5880 5882 5884 5886 5888 5891 5893 5895 5898 5900 5902 5904 5906 5908 5909 5911 5913 5915
5871 5871 5871 5870 5869 5869 5868 5868 5868 5867 5867 5867 5867 5867 5867 5867 5867 5868 5869 5869 5870 5871 5872 5873 5874 5875 5877 5879 5881 5883 5886 5888 5891 5893 5896 5898 5900 5902 5904 5906 5908 5910 5912
5869 5869 5868 5868 5867 5866 5866 5865 5865 5864 5864 5864 5863 5863 5863 5863 5863 5864 5864 5865 5866 5867 5867 5868 5869 5871 5872 5874 5876 5878 5880 5882 5885 5888 5890 5893 5896 5898 5901 5903 5905 5907 5909
5868 5867 5866 5866 5865 5864 5863 5862 5862 5861 5861 5860 5860 5859 5859 5859 5859 5859 5860 5860 5861 5862 5862 5863 5864 5866 5867 5869 5870 5872 5874 5876 5879 5882 5885 5888 5891 5893 5896 5898 5901 5903 5905
5866 5865 5864 5863 5862 5862 5861 5860 5859 5858 5858 5857 5856 5856 5855 5855 5854 5854 5855 5855 5856 5856 5857 5858 5859 5860 5862 5863 5865 5867 5868 5870 5873 5875 5878 5881 5884 5887 5890 5893 5896 5898 5901
5864 5863 5862 5861 5860 5859 5858 5857 5856 5855 5854 5853 5852 5851 5851 5851 5850 5850 5849 5850 5850 5850 5851 5852 5853 5854 5856 5857 5859 5861 5862 5864 5866 5869 5872 5875 5878 5881 5884 5887 5890 5893 5896
5862 5861 5860 5859 5858 5856 5855 5854 5853 5852 5850 5849 5848 5847 5846 5845 5844 5844 5844 5844 5844 5844 5845 5845 5846 5847 5849 5850 5852 5854 5856 5858 5860 5862 5865 5868 5871 5874 5877 5881 5884 5887 5890
5860 5859 5858 5857 5855 5854 5852 5851 5849 5848 5846 5845 5843 5842 5841 5840 5839 5838 5838 5837 5837 5837 5838 5838 5839 5840 5841 5843 5844 5846 5848 5850 5853 5855 5858 5861 5864 5867 5870 5874 5877 5880 5884
5858 5857 5856 5855 5853 5851 5849 5847 5846 5844 5842 5840 5838 5837 5835 5834 5832 5832 5830 5830 5830 5830 5830 5831 5831 5832 5833 5834 5836 5838 5840 5842 5845 5847 5850 5853 5856 5859 5862 5866 5869 5873 5876
5856 5855 5854 5852 5850 5848 5846 5844 5842 5840 5837 5835 5833 5831 5829 5828 5826 5825 5823 5822 5822 5822 5822 5822 5823 5823 5824 5826 5827 5829 5831 5834 5836 5839 5841 5844 5847 5850 5854 5858 5861 5865 5869
5854 5853 5851 5849 5847 5845 5842 5840 5837 5835 5832 5830 5827 5825 5823 5821 5819 5817 5816 5814 5813 5812 5812 5813 5813 5814 5815 5816 5818 5820 5822 5824 5827 5829 5832 5835 5838 5842 5845 5849 5852 5856 5860
5851 5850 5848 5846 5843 5841 5838 5835 5833 5830 5827 5824 5821 5819 5816 5814 5812 5810 5808 5807 5805 5804 5802 5802 5803 5804 5805 5806 5808 5810 5812 5814 5816 5819 5822 5825 5829 5832 5836 5839 5843 5847 5851
5848 5846 5844 5842 5839 5836 5834 5831 5828 5825 5821 5818 5815 5812 5809 5806 5804 5802 5800 5798 5797 5795 5793 5792 5792 5793 5794 5796 5797 5799 5801 5803 5805 5808 5811 5814 5818 5822 5826 5830 5833 5838 5842
5845 5843 5840 5838 5835 5832 5829 5826 5822 5819 5815 5812 5808 5805 5801 5798 5795 5793 5791 5789 5787 5786 5785 5782 5781 5781 5782 5784 5785 5787 5789 5791 5794 5797 5800 5803 5807 5811 5815 5819 5823 5828 5832
5841 5839 5836 5833 5830 5827 5823 5820 5816 5813 5809 5805 5802 5798 5794 5791 5787 5785 5782 5780 5778 5777 5776 5773 5771 5770 5770 5772 5773 5775 5777 5779 5782 5784 5788 5791 5795 5799 5803 5808 5812 5817 5822
5836 5834 5831 5828 5824 5821 5818 5814 5810 5807 5803 5799 5795 5791 5787 5783 5780 5776 5774 5771 5769 5767 5766 5764 5762 5760 5760 5760 5761 5763 5764 5767 5769 5772 5775 5779 5783 5787 5791 5796 5801 5806 5810
5830 5828 5825 5822 5819 5815 5812 5808 5804 5800 5796 5792 5788 5784 5779 5775 5772 5768 5765 5762 5759 5757 5755 5754 5752 5750 5749 5749 5750 5751 5752 5754 5757 5759 5762 5766 5770 5774 5779 5784 5788 5794 5799
5824 5822 5819 5816 5812 5809 5805 5801 5797 5793 5789 5785 5780 5776 5772 5767 5763 5760 5756 5753 5750 5747 5745 5744 5742 5740 5739 5738 5738 5739 5741 5742 5744 5747 5749 5753 5757 5761 5766 5772 5777 5781 5786
5818 5815 5812 5809 5805 5802 5798 5794 5790 5786 5781 5777 5772 5768 5763 5759 5755 5751 5747 5744 5740 5738 5735 5733 5732 5730 5728 5727 5727 5728 5729 5730 5732 5734 5737 5740 5744 5749 5753 5758 5763 5768 5773
5811 5808 5805 5801 5798 5794 5790 5786 5782 5778 5773 5769 5764 5759 5755 5750 5746 5742 5738 5734 5731 5728 5725 5723 5721 5719 5717 5716 5716 5716 5717 5719 5721 5722 5724 5727 5731 5735 5739 5745 5750 5755 5760
5803 5800 5797 5794 5790 5786 5782 5778 5774 5769 5765 5760 5755 5750 5746 5741 5736 5732 5728 5725 5721 5718 5715 5713 5711 5708 5707 5705 5705 5705 5705 5706 5708 5709 5711 5715 5717 5722 5726 5731 5736 5742 5747
5795 5792 5789 5786 5782 5778 5774 5769 5765 5761 5756 5751 5746 5741 5736 5731 5727 5723 5719 5715 5711 5708 5705 5702 5700 5698 5696 5694 5693 5693 5693 5694 5696 5696 5698 5702 5704 5708 5712 5717 5722 5728 5734
5787 5783 5780 5777 5773 5769 5764 5760 5756 5751 5747 5742 5736 5731 5726 5722 5717 5713 5709 5705 5701 5697 5694 5692 5689 5687 5685 5683 5682 5681 5681 5682 5683 5684 5685 5689 5692 5694 5699 5704 5709 5715 5720
5778 5774 5771 5767 5763 5759 5755 5750 5746 5741 5737 5732 5726 5721 5716 5711 5707 5702 5699 5695 5691 5687 5684 5681 5678 5676 5674 5672 5670 5669 5669 5669 5671 5672 5673 5675 5678 5681 5687 5691 5696 5701 5707